Flag for India Weather past 2 weeks in Kolkata, West Bengal, India

70 °F


Feels Like: 70 °F
Forecast: 67 / 88 °F
Wind: No wind

Location: Calcutta / Dum Dum

Current Time: Nov 30, 2015 at 1:32:02 AM

Latest Report: Nov 30, 2015 at 1:00 AM

Visibility: 1 mi

Pressure: 29.98 "Hg

Humidity: 88%

Dew point: 66 °F

Location of KolkataLocation

Historic Weather in Kolkata — Graph


Kolkata temperature yesterday

Maximum temperature yesterday: 84 °F (at 12:00 PM)
Minimum temperature yesterday: 68 °F (at 4:30 AM)
Average temperature yesterday: 75 °F

Past Weeks' High & Low Weather Summary

High90 °F (Nov 15, 12:30 PM)100% (Nov 20, 6:00 AM)30.09 "Hg (Nov 20, 6:00 AM)
Low64 °F (Nov 23, 4:30 AM)33% (Nov 23, 3:30 PM)29.77 "Hg (Nov 15, 3:00 PM)
Average76 °F72%29.91 "Hg
* Reported Nov 15 12:50 AM — Nov 30 12:30 AM, Kolkata, Weather by CustomWeather, © 2015

Note: Actual official high and low records may vary slightly from our data, if they occured in-between our weather recording intervals... More about our weather records


Kolkata weather history for previous 24 hours

Time TempWeatherWind HumidityBarometerVisibility
12:30 AM
Mon, Nov 30
72 °FFog.No wind88%30.01 "Hg1 mi
12:00 AM72 °FFog.No wind88%30.01 "Hg1 mi
11:30 PM
Sun, Nov 29
72 °FFog.No wind88%30.01 "Hg1 mi
11:00 PM72 °FFog.No wind88%30.01 "Hg1 mi
10:30 PM72 °FFog.No wind88%30.01 "Hg1 mi
10:00 PM73 °FFog.No wind83%30.01 "Hg1 mi
9:30 PM73 °FFog.No wind83%30.01 "Hg1 mi
9:00 PM73 °FFog.No wind83%30.01 "Hg1 mi
8:30 PM73 °FFog.No wind83%30.01 "Hg1 mi
8:00 PM75 °FFog.No wind78%30.01 "Hg1 mi
7:30 PM75 °FFog.No wind78%30.01 "Hg1 mi
7:00 PM75 °FFog.No wind78%29.98 "Hg1 mi
6:30 PM75 °FFog.No wind78%29.98 "Hg1 mi
6:00 PM77 °FPassing clouds.No wind74%29.95 "Hg1 mi
5:30 PM79 °FPassing clouds.No wind61%29.95 "Hg2 mi
5:00 PM79 °FScattered clouds.No wind61%29.95 "Hg2 mi
4:30 PM81 °FHaze.No wind58%29.95 "Hg2 mi
4:00 PM82 °FHaze.3 mph51%29.95 "Hg2 mi
3:30 PM82 °FHaze.No wind51%29.95 "Hg2 mi
3:00 PM84 °FHaze.3 mph48%29.95 "Hg2 mi
2:30 PM84 °FHaze.5 mph48%29.98 "Hg2 mi
2:00 PM84 °FHaze.6 mph48%29.98 "Hg2 mi
1:30 PM84 °FHaze.6 mph51%29.98 "Hg2 mi
12:30 PM84 °FHaze.6 mph51%30.01 "Hg2 mi
12:00 PM84 °FHaze.5 mph51%30.04 "Hg2 mi
11:30 AM82 °FHaze.3 mph55%30.07 "Hg2 mi
10:30 AM81 °FHaze.3 mph66%30.07 "Hg2 mi
10:00 AM79 °FHaze.3 mph70%30.09 "Hg1 mi
9:30 AM77 °FHaze.3 mph74%30.09 "Hg1 mi
9:00 AM75 °FFog.3 mph78%30.09 "Hg1 mi
8:30 AM72 °FMild.3 mph88%30.09 "Hg1 mi
8:00 AM70 °FMild.3 mph88%30.07 "Hg1 mi
7:30 AM68 °FMild.No wind94%30.07 "Hg1 mi
7:00 AM68 °FMild.No wind94%30.04 "Hg1 mi
6:30 AM68 °FMild.No wind94%30.04 "Hg1 mi
5:30 AM68 °FFog.No wind94%30.01 "Hg1 mi
5:00 AM68 °FFog.No wind94%30.01 "Hg1 mi
4:30 AM68 °FFog.No wind94%30.01 "Hg1 mi
4:00 AM70 °FFog.No wind94%30.01 "Hg1 mi
3:30 AM70 °FFog.No wind94%30.01 "Hg1 mi
3:00 AM70 °FFog.No wind94%30.01 "Hg1 mi
2:30 AM70 °FFog.No wind94%30.01 "Hg1 mi
1:30 AM72 °FFog.No wind94%30.01 "Hg1 mi
1:00 AM72 °FFog.No wind94%30.01 "Hg1 mi
Weather by CustomWeather, © 2015

See weather overviewHow to use our weather pages